Regional Weather Roundup
Issued by NWS

Current Version | Previous Version | Text Only | Print | Product List | Glossary On
Versions: 1 2 3 4 5 6 7 8 9 10 11 12 13 14 15 16 17 18 19 20 21 22 23 24 25 26 27 28 29 30 31 32 33 34 35 36 37 38 39 40 41 42 43 44 45 46 47 48
000
ASUS46 KPQR 010710
RWROR

OREGON REGIONAL WEATHER ROUNDUP
NATIONAL WEATHER SERVICE PORTLAND OR
1100 PM PST SUN FEB 28 2021

NOTE: "FAIR" INDICATES FEW OR NO CLOUDS BELOW 12,000 FEET WITH
NO SIGNIFICANT WEATHER AND/OR OBSTRUCTIONS TO VISIBILITY.

ORZ001>013-010800-
NORTHWEST OREGON


CITY           SKY/WX    TMP DP  RH WIND       PRES   REMARKS
ASTORIA        MOCLDY    41  40  96 S3        30.13F
NEWPORT        PTCLDY    37  37 100 CALM      30.18F
FLORENCE       FAIR      38  37  95 CALM      30.16F
PORTLAND       MOCLDY    44  38  79 E5        30.17S
VANCOUVER WA   MOCLDY    46  37  71 E5        30.17S
SCAPPOOSE      MOCLDY    41  37  86 CALM      30.17S
HILLSBORO      MOCLDY    41  40  96 NW3       30.16S
AURORA         MOCLDY    44  38  79 CALM      30.16F
MCMINNVILLE    MOCLDY    44  41  89 N6        30.14F
SALEM          MOCLDY    41  37  86 CALM      30.14F
CORVALLIS      PTCLDY    40  39  97 SW3       30.15F
EUGENE         PTCLDY    42  38  85 S3        30.15F
CRESWELL       CLEAR     37  37 100 CALM      30.15F
$$

ORZ021-028-010800-
SOUTHWEST OREGON


CITY           SKY/WX    TMP DP  RH WIND       PRES   REMARKS
NORTH BEND     CLEAR     40  39  97 CALM      30.17F
BROOKINGS      CLEAR     42  41  96 CALM      30.14F
ROSEBURG       CLEAR     42  37  82 CALM      30.14F
SEXTON SUMMIT  CLEAR     42  28  57 SE12      30.12F
GRANTS PASS    FAIR      37  34  87 CALM      30.19S
MEDFORD        CLEAR     43  33  68 CALM      30.16F
$$

ORZ014>016-041-010800-
COLUMBIA GORGE


CITY           SKY/WX    TMP DP  RH WIND       PRES   REMARKS
TROUTDALE      MOCLDY    44  38  79 E6        30.17F
HOOD RIVER     PTCLDY    37  36  93 S5        30.19S
THE DALLES     PTCLDY    41  34  76 CALM      30.18F
$$

ORZ029>031-041-044-049-050-061>064-502-503-505>511-010800-
EASTERN OREGON


CITY           SKY/WX    TMP DP  RH WIND       PRES   REMARKS
MADRAS         PTCLDY    32  27  80 CALM      30.15F
REDMOND        CLEAR     32  24  72 CALM      30.15S
BEND           CLEAR     36  23  60 S8        30.17S
PRINEVILLE     CLEAR     39  28  65 E5        30.17S
KLAMATH FALLS  CLEAR     24  20  84 CALM      30.19F
LAKEVIEW       CLEAR     22  20  92 W3        30.23F
HERMISTON      CLEAR     34  29  82 SE3       30.17F
PENDLETON      CLEAR     41  30  65 S7        30.16F
JOHN DAY       CLEAR     32  28  85 E9        30.24S
MEACHAM        CLEAR     30  21  69 CALM      30.18F
LA GRANDE      CLEAR     33  21  61 S20G28    30.27F WCI  21
BAKER CITY     CLEAR     26  19  74 CALM      30.32S
BURNS          CLEAR     25  22  88 SW6       30.25F
ROME             N/A     33  18  53 SE14      30.26S WCI  23
ONTARIO        CLEAR     29  21  72 NW3       30.39F
$$


OTHER REGIONAL REPORTS

CITY           SKY/WX    TMP DP  RH WIND       PRES   REMARKS
SEATTLE        MOCLDY    44  40  85 S6        30.14F
SPOKANE        PTCLDY    35  27  72 SE9       30.19F
VANCOUVER BC   CLOUDY    45  43  93 E7        30.11F
PRINCE GEORGE  MOCLDY    36  30  80 S16G23    29.69R WCI  26
DAWSON CREEK   CLEAR     43  28  56 SW24G36   29.51S
WHITEHORSE     FLURRIES  19  14  79 N10G21    29.44R WCI   8
BOISE          CLEAR     30  22  72 E6        30.35S
REDDING        CLEAR     50  31  48 N3        30.16R
SAN FRANCISCO  PTCLDY    52  34  50 S5        30.17R

$$




USA.gov is the U.S. government's official web portal to all federal, state and local government web resources and services.